WZZ8665 LBSF-LICA

Flight info

Callsign WZZ8665
Flight time 1h 9m
Altitude 32000
Route NAPET T214 DOBAR DCT PAPIZ DCT ABADI DCT ALIXI DCT CRN L869 CDC
Aircraft A321/M-SDE1E2E3FGIJ1J4RWXY/LB1

Departure

Time 2026-04-18 09:14
Airport Sofia Airport (LBSF)

Arrival

Time 2026-04-18 10:23
Airport Lamezia Terme Sant'Eufemia International Airport (LICA)
Time Latitude Longitude Altitude Speed Heading
2026-04-18 08:38 42.69137 23.40034 1721 ft 0 kts 196°
2026-04-18 08:53 42.69138 23.40034 1748 ft 0 kts 196°
2026-04-18 09:05 42.69132 23.40032 1742 ft 4 kts 196°
2026-04-18 09:05 42.69081 23.40075 1746 ft 11 kts 117°
2026-04-18 09:06 42.69052 23.40196 1746 ft 17 kts 107°
2026-04-18 09:06 42.69092 23.40312 1749 ft 16 kts 15°
2026-04-18 09:06 42.69214 23.40362 1746 ft 21 kts 15°
2026-04-18 09:06 42.69360 23.40423 1746 ft 23 kts 18°
2026-04-18 09:07 42.69500 23.40482 1746 ft 14 kts 19°
2026-04-18 09:07 42.69526 23.40613 1746 ft 21 kts 94°
2026-04-18 09:07 42.69511 23.40857 1747 ft 27 kts 96°
2026-04-18 09:07 42.69494 23.41117 1750 ft 28 kts 95°
2026-04-18 09:08 42.69478 23.41379 1743 ft 28 kts 94°
2026-04-18 09:08 42.69464 23.41643 1745 ft 28 kts 95°
2026-04-18 09:08 42.69450 23.41907 1742 ft 28 kts 95°
2026-04-18 09:08 42.69433 23.42175 1751 ft 28 kts 95°
2026-04-18 09:09 42.69418 23.42431 1749 ft 26 kts 95°
2026-04-18 09:09 42.69405 23.42640 1743 ft 20 kts 95°
2026-04-18 09:09 42.69444 23.42752 1744 ft 13 kts 16°
2026-04-18 09:09 42.69476 23.42742 1745 ft 0 kts 328°
2026-04-18 09:11 42.69479 23.42739 1747 ft 3 kts 325°
2026-04-18 09:12 42.69531 23.42654 1742 ft 15 kts 302°
2026-04-18 09:12 42.69584 23.42577 1749 ft 9 kts 341°
2026-04-18 09:12 42.69600 23.42514 1748 ft 9 kts 275°
2026-04-18 09:12 42.69601 23.42502 1750 ft 0 kts 275°
2026-04-18 09:13 42.69611 23.42322 1748 ft 57 kts 274°
2026-04-18 09:13 42.69664 23.41430 1752 ft 130 kts 275°
2026-04-18 09:14 42.69757 23.39941 1926 ft 170 kts 273°
2026-04-18 09:14 42.70073 23.38432 2801 ft 166 kts 300°
2026-04-18 09:14 42.70698 23.37125 3653 ft 164 kts 313°
2026-04-18 09:14 42.71439 23.35875 4183 ft 179 kts 312°
2026-04-18 09:15 42.72264 23.34468 4521 ft 201 kts 312°
2026-04-18 09:15 42.73168 23.32914 4777 ft 222 kts 311°
2026-04-18 09:15 42.74185 23.31160 4996 ft 249 kts 311°
2026-04-18 09:15 42.75295 23.29238 5567 ft 264 kts 310°
2026-04-18 09:16 42.76346 23.27159 6420 ft 271 kts 297°
2026-04-18 09:16 42.76737 23.24619 7254 ft 279 kts 274°
2026-04-18 09:16 42.76764 23.21966 8139 ft 281 kts 273°
2026-04-18 09:16 42.76789 23.19322 9023 ft 284 kts 274°
2026-04-18 09:17 42.76821 23.16625 9907 ft 287 kts 274°
2026-04-18 09:17 42.76728 23.13839 10378 ft 308 kts 258°
2026-04-18 09:17 42.75843 23.11054 10710 ft 333 kts 237°
2026-04-18 09:17 42.74167 23.08808 11335 ft 346 kts 214°
2026-04-18 09:18 42.72069 23.07149 12075 ft 351 kts 210°
2026-04-18 09:18 42.69920 23.05524 12830 ft 355 kts 210°
2026-04-18 09:18 42.67741 23.03887 13592 ft 359 kts 210°
2026-04-18 09:18 42.65537 23.02237 14288 ft 364 kts 210°
2026-04-18 09:19 42.63343 23.00594 14961 ft 367 kts 210°
2026-04-18 09:19 42.61086 22.98900 15620 ft 372 kts 210°
2026-04-18 09:19 42.58814 22.97190 16307 ft 375 kts 210°
2026-04-18 09:19 42.56520 22.95459 16994 ft 380 kts 211°
2026-04-18 09:20 42.54197 22.93709 17665 ft 384 kts 211°
2026-04-18 09:20 42.51842 22.91940 18337 ft 388 kts 211°
2026-04-18 09:20 42.49456 22.90152 18904 ft 392 kts 211°
2026-04-18 09:20 42.47085 22.88378 19503 ft 395 kts 211°
2026-04-18 09:21 42.44662 22.86564 20107 ft 398 kts 211°
2026-04-18 09:21 42.42222 22.84737 20716 ft 402 kts 211°
2026-04-18 09:21 42.39760 22.82897 21314 ft 405 kts 211°
2026-04-18 09:21 42.37279 22.81046 21921 ft 408 kts 211°
2026-04-18 09:22 42.34811 22.79210 22516 ft 412 kts 211°
2026-04-18 09:22 42.32288 22.77335 23105 ft 415 kts 211°
2026-04-18 09:22 42.29741 22.75441 23662 ft 419 kts 211°
2026-04-18 09:22 42.27177 22.73536 24147 ft 422 kts 211°
2026-04-18 09:23 42.24595 22.71617 24617 ft 424 kts 211°
2026-04-18 09:23 42.21991 22.69684 25108 ft 427 kts 211°
2026-04-18 09:23 42.19371 22.67743 25592 ft 430 kts 211°
2026-04-18 09:23 42.16781 22.65829 26046 ft 432 kts 211°
2026-04-18 09:24 42.14136 22.63873 26506 ft 434 kts 211°
2026-04-18 09:24 42.11575 22.61696 26943 ft 435 kts 220°
2026-04-18 09:24 42.09312 22.58993 27381 ft 434 kts 230°
2026-04-18 09:24 42.07411 22.55844 27795 ft 433 kts 239°
2026-04-18 09:25 42.05792 22.52472 28202 ft 434 kts 240°
2026-04-18 09:25 42.04146 22.49037 28650 ft 437 kts 240°
2026-04-18 09:25 42.02483 22.45594 29073 ft 439 kts 240°
2026-04-18 09:25 42.00806 22.42141 29502 ft 442 kts 239°
2026-04-18 09:26 41.99113 22.38660 29921 ft 444 kts 239°
2026-04-18 09:26 41.97600 22.35108 30276 ft 443 kts 248°
2026-04-18 09:26 41.96329 22.31317 30603 ft 445 kts 249°
2026-04-18 09:26 41.95054 22.27502 30928 ft 447 kts 249°
2026-04-18 09:27 41.93771 22.23678 31267 ft 450 kts 249°
2026-04-18 09:27 41.92492 22.19878 31593 ft 452 kts 249°
2026-04-18 09:27 41.91191 22.16023 31931 ft 453 kts 249°
2026-04-18 09:27 41.89892 22.12188 32004 ft 446 kts 249°
2026-04-18 09:28 41.88624 22.08459 32007 ft 431 kts 249°
2026-04-18 09:28 41.87388 22.04825 32017 ft 424 kts 249°
2026-04-18 09:28 41.84972 21.97691 32020 ft 421 kts 249°
2026-04-18 09:29 41.82534 21.90528 32024 ft 421 kts 249°
2026-04-18 09:29 41.80115 21.83427 32023 ft 421 kts 249°
2026-04-18 09:30 41.77676 21.76283 32026 ft 421 kts 249°
2026-04-18 09:30 41.75228 21.69130 32028 ft 421 kts 249°
2026-04-18 09:31 41.72788 21.62029 32026 ft 421 kts 249°
2026-04-18 09:31 41.70325 21.54896 32023 ft 421 kts 249°
2026-04-18 09:32 41.67877 21.47811 32027 ft 421 kts 249°
2026-04-18 09:32 41.65412 21.40692 32029 ft 421 kts 249°
2026-04-18 09:33 41.62961 21.33615 32032 ft 421 kts 249°
2026-04-18 09:33 41.60485 21.26491 32035 ft 421 kts 249°
2026-04-18 09:34 41.58023 21.19431 32029 ft 421 kts 249°
2026-04-18 09:34 41.55547 21.12337 32033 ft 421 kts 249°
2026-04-18 09:35 41.53067 21.05275 32045 ft 420 kts 249°
2026-04-18 09:35 41.50587 20.98250 32030 ft 420 kts 249°
2026-04-18 09:36 41.48105 20.91212 32031 ft 419 kts 250°
2026-04-18 09:36 41.45625 20.84166 32030 ft 419 kts 250°
2026-04-18 09:37 41.43135 20.77135 32020 ft 418 kts 250°
2026-04-18 09:37 41.40664 20.70188 32022 ft 418 kts 250°
2026-04-18 09:38 41.38170 20.63184 32019 ft 417 kts 250°
2026-04-18 09:38 41.35684 20.56209 32019 ft 417 kts 250°
2026-04-18 09:39 41.33217 20.49230 32006 ft 413 kts 254°
2026-04-18 09:39 41.31239 20.42119 31998 ft 411 kts 256°
2026-04-18 09:40 41.29251 20.34999 31975 ft 410 kts 256°
2026-04-18 09:40 41.27260 20.27881 31955 ft 410 kts 256°
2026-04-18 09:41 41.25285 20.20818 31953 ft 409 kts 256°
2026-04-18 09:41 41.23291 20.13713 31951 ft 409 kts 256°
2026-04-18 09:42 41.21294 20.06653 31937 ft 408 kts 256°
2026-04-18 09:42 41.19305 19.99621 31936 ft 409 kts 256°
2026-04-18 09:43 41.17304 19.92529 31936 ft 408 kts 256°
2026-04-18 09:43 41.15319 19.85506 31933 ft 408 kts 256°
2026-04-18 09:44 41.13312 19.78444 31928 ft 408 kts 256°
2026-04-18 09:44 41.11305 19.71437 31923 ft 408 kts 256°
2026-04-18 09:45 41.09283 19.64390 31923 ft 408 kts 256°
2026-04-18 09:45 41.07264 19.57339 31918 ft 408 kts 256°
2026-04-18 09:46 41.05247 19.50343 31926 ft 409 kts 256°
2026-04-18 09:46 41.03206 19.43290 31931 ft 409 kts 255°
2026-04-18 09:47 41.01178 19.36273 31936 ft 410 kts 255°
2026-04-18 09:47 40.99129 19.29212 31942 ft 410 kts 255°
2026-04-18 09:48 40.97421 19.23351 31945 ft 410 kts 255°
2026-04-18 09:48 40.95360 19.16295 31949 ft 410 kts 255°
2026-04-18 09:49 40.93295 19.09233 31953 ft 411 kts 255°
2026-04-18 09:49 40.91240 19.02218 31962 ft 411 kts 255°
2026-04-18 09:50 40.89123 18.95192 31963 ft 415 kts 250°
2026-04-18 09:50 40.86249 18.88494 31965 ft 419 kts 246°
2026-04-18 09:51 40.83325 18.81856 31965 ft 420 kts 246°
2026-04-18 09:51 40.80383 18.75182 31968 ft 420 kts 246°
2026-04-18 09:52 40.77444 18.68512 31973 ft 421 kts 245°
2026-04-18 09:52 40.73683 18.62510 31977 ft 435 kts 225°
2026-04-18 09:53 40.68738 18.57789 31975 ft 438 kts 220°
2026-04-18 09:53 40.63762 18.53120 31981 ft 438 kts 220°
2026-04-18 09:54 40.58819 18.48472 31979 ft 437 kts 220°
2026-04-18 09:54 40.53847 18.43821 31980 ft 437 kts 220°
2026-04-18 09:55 40.48915 18.39223 31976 ft 437 kts 220°
2026-04-18 09:55 40.43961 18.34602 31989 ft 436 kts 220°
2026-04-18 09:56 40.39003 18.29986 31989 ft 436 kts 220°
2026-04-18 09:56 40.34047 18.25379 31998 ft 436 kts 220°
2026-04-18 09:57 40.29120 18.20814 32018 ft 436 kts 220°
2026-04-18 09:57 40.24158 18.16220 32016 ft 436 kts 220°
2026-04-18 09:58 40.19207 18.11644 32016 ft 436 kts 220°
2026-04-18 09:58 40.14251 18.07083 32012 ft 435 kts 219°
2026-04-18 09:59 40.09321 18.02555 32005 ft 435 kts 219°
2026-04-18 10:00 40.01882 17.95710 32004 ft 435 kts 219°
2026-04-18 10:00 39.96918 17.91157 31848 ft 434 kts 219°
2026-04-18 10:00 39.94451 17.88902 31587 ft 431 kts 219°
2026-04-18 10:01 39.92043 17.86707 31257 ft 426 kts 219°
2026-04-18 10:01 39.89618 17.84498 30773 ft 424 kts 219°
2026-04-18 10:01 39.87204 17.82301 30315 ft 422 kts 219°
2026-04-18 10:01 39.84806 17.80118 29800 ft 420 kts 219°
2026-04-18 10:02 39.82422 17.77947 29354 ft 416 kts 219°
2026-04-18 10:02 39.80059 17.75793 28904 ft 412 kts 219°
2026-04-18 10:02 39.77719 17.73662 28477 ft 409 kts 219°
2026-04-18 10:02 39.75393 17.71544 28045 ft 406 kts 219°
2026-04-18 10:03 39.73080 17.69439 27626 ft 404 kts 219°
2026-04-18 10:03 39.70785 17.67353 27218 ft 402 kts 219°
2026-04-18 10:03 39.68525 17.65302 26811 ft 399 kts 219°
2026-04-18 10:03 39.66248 17.63241 26403 ft 397 kts 218°
2026-04-18 10:04 39.63990 17.61202 26005 ft 394 kts 218°
2026-04-18 10:04 39.61741 17.59169 25589 ft 392 kts 218°
2026-04-18 10:04 39.59507 17.57148 25180 ft 390 kts 218°
2026-04-18 10:04 39.57284 17.55141 24749 ft 388 kts 218°
2026-04-18 10:05 39.55070 17.53145 24316 ft 387 kts 218°
2026-04-18 10:05 39.52859 17.51154 23881 ft 386 kts 218°
2026-04-18 10:05 39.50688 17.49200 23425 ft 385 kts 218°
2026-04-18 10:05 39.48488 17.47224 22951 ft 383 kts 218°
2026-04-18 10:06 39.46313 17.45271 22512 ft 379 kts 218°
2026-04-18 10:06 39.44140 17.43349 22097 ft 376 kts 216°
2026-04-18 10:06 39.41942 17.41531 21670 ft 374 kts 214°
2026-04-18 10:06 39.39730 17.39788 21245 ft 371 kts 213°
2026-04-18 10:07 39.37517 17.38080 20822 ft 369 kts 213°
2026-04-18 10:07 39.35315 17.36385 20396 ft 366 kts 213°
2026-04-18 10:07 39.33134 17.34694 19974 ft 363 kts 214°
2026-04-18 10:07 39.30984 17.33008 19557 ft 361 kts 214°
2026-04-18 10:08 39.28873 17.31344 19138 ft 359 kts 214°
2026-04-18 10:08 39.26747 17.29665 18725 ft 356 kts 215°
2026-04-18 10:08 39.24641 17.27993 18301 ft 354 kts 214°
2026-04-18 10:08 39.22546 17.26333 17849 ft 352 kts 214°
2026-04-18 10:09 39.20479 17.24701 17449 ft 349 kts 214°
2026-04-18 10:09 39.18402 17.23065 17021 ft 346 kts 214°
2026-04-18 10:09 39.16356 17.21453 16616 ft 343 kts 214°
2026-04-18 10:09 39.14327 17.19856 16203 ft 340 kts 214°
2026-04-18 10:10 39.12337 17.18289 15810 ft 338 kts 214°
2026-04-18 10:10 39.10336 17.16712 15409 ft 336 kts 214°
2026-04-18 10:10 39.08347 17.15149 15009 ft 334 kts 214°
2026-04-18 10:10 39.06363 17.13600 14626 ft 333 kts 214°
2026-04-18 10:11 39.04380 17.12050 14229 ft 333 kts 214°
2026-04-18 10:11 39.02404 17.10503 13831 ft 332 kts 214°
2026-04-18 10:11 39.00582 17.08721 13415 ft 327 kts 227°
2026-04-18 10:11 38.99156 17.06492 13024 ft 320 kts 241°
2026-04-18 10:12 38.98175 17.03998 12668 ft 314 kts 250°
2026-04-18 10:12 38.97330 17.01424 12298 ft 311 kts 250°
2026-04-18 10:12 38.96485 16.98874 11930 ft 309 kts 250°
2026-04-18 10:12 38.95638 16.96341 11565 ft 307 kts 249°
2026-04-18 10:13 38.94793 16.93835 11206 ft 305 kts 250°
2026-04-18 10:13 38.93955 16.91347 10938 ft 301 kts 250°
2026-04-18 10:13 38.93127 16.88882 10618 ft 299 kts 249°
2026-04-18 10:13 38.92307 16.86437 10208 ft 294 kts 250°
2026-04-18 10:14 38.91499 16.84021 9834 ft 294 kts 249°
2026-04-18 10:14 38.90707 16.81647 9432 ft 293 kts 249°
2026-04-18 10:14 38.89910 16.79274 9241 ft 284 kts 249°
2026-04-18 10:14 38.89147 16.77017 9044 ft 264 kts 249°
2026-04-18 10:15 38.88431 16.74905 8616 ft 255 kts 250°
2026-04-18 10:15 38.87736 16.72844 8254 ft 246 kts 250°
2026-04-18 10:15 38.87081 16.70898 7905 ft 238 kts 250°
2026-04-18 10:15 38.86437 16.68989 7580 ft 229 kts 250°
2026-04-18 10:16 38.85864 16.67088 7282 ft 226 kts 259°
2026-04-18 10:16 38.85696 16.65132 6997 ft 213 kts 277°
2026-04-18 10:16 38.85881 16.63326 6716 ft 201 kts 283°
2026-04-18 10:16 38.86098 16.61581 6468 ft 197 kts 283°
2026-04-18 10:17 38.86310 16.59843 6201 ft 204 kts 283°
2026-04-18 10:17 38.86542 16.57975 5923 ft 216 kts 283°
2026-04-18 10:17 38.86773 16.56077 5489 ft 220 kts 283°
2026-04-18 10:17 38.87013 16.54109 4989 ft 225 kts 283°
2026-04-18 10:18 38.87257 16.52103 4491 ft 230 kts 282°
2026-04-18 10:18 38.87499 16.50047 3923 ft 237 kts 281°
2026-04-18 10:18 38.87736 16.47995 3489 ft 225 kts 281°
2026-04-18 10:18 38.87959 16.46089 3202 ft 206 kts 280°
2026-04-18 10:19 38.88166 16.44352 2931 ft 190 kts 281°
2026-04-18 10:19 38.88362 16.42699 2681 ft 185 kts 279°
2026-04-18 10:19 38.88556 16.41078 2419 ft 182 kts 278°
2026-04-18 10:19 38.88747 16.39461 2156 ft 184 kts 277°
2026-04-18 10:20 38.88929 16.37938 1912 ft 162 kts 277°
2026-04-18 10:20 38.89086 16.36612 1701 ft 143 kts 277°
2026-04-18 10:20 38.89231 16.35374 1501 ft 137 kts 275°
2026-04-18 10:20 38.89372 16.34180 1326 ft 136 kts 275°
2026-04-18 10:21 38.89514 16.32972 1154 ft 137 kts 276°
2026-04-18 10:21 38.89652 16.31797 985 ft 132 kts 276°
2026-04-18 10:21 38.89792 16.30614 818 ft 132 kts 276°
2026-04-18 10:21 38.89929 16.29445 650 ft 134 kts 278°
2026-04-18 10:22 38.90068 16.28261 485 ft 134 kts 277°
2026-04-18 10:22 38.90205 16.27094 305 ft 131 kts 276°
2026-04-18 10:22 38.90337 16.25943 104 ft 130 kts 276°
2026-04-18 10:22 38.90462 16.24876 47 ft 103 kts 279°
2026-04-18 10:23 38.90549 16.24136 43 ft 69 kts 278°
2026-04-18 10:23 38.90614 16.23705 42 ft 28 kts 293°
2026-04-18 10:23 38.90716 16.23527 44 ft 25 kts 314°
2026-04-18 10:23 38.90833 16.23573 45 ft 21 kts 91°
2026-04-18 10:24 38.90820 16.23741 45 ft 16 kts 100°
2026-04-18 10:24 38.90803 16.23886 45 ft 17 kts 98°
2026-04-18 10:24 38.90784 16.24052 45 ft 20 kts 98°
2026-04-18 10:24 38.90814 16.24213 45 ft 19 kts 57°
2026-04-18 10:25 38.90816 16.24381 45 ft 14 kts 97°
2026-04-18 10:25 38.90803 16.24496 45 ft 14 kts 99°
2026-04-18 10:25 38.90787 16.24628 45 ft 15 kts 99°
2026-04-18 10:25 38.90777 16.24717 45 ft 6 kts 97°
2026-04-18 10:26 38.90771 16.24778 45 ft 8 kts 98°
2026-04-18 10:26 38.90769 16.24797 45 ft 0 kts 97°
2026-04-18 10:27 38.90769 16.24798 45 ft 0 kts 95°
2026-04-18 10:27 38.90778 16.24808 45 ft 4 kts 38°
2026-04-18 10:28 38.90812 16.24820 45 ft 4 kts 17°
2026-04-18 10:28 38.90825 16.24833 44 ft 1 kts 40°
2026-04-18 10:28 38.90826 16.24834 42 ft 0 kts 40°
2026-04-18 10:36 38.90826 16.24833 42 ft 0 kts 40°
2026-04-18 10:48 38.90825 16.24833 45 ft 0 kts 40°